Погода в Сиракузе

Италия     37°04′23″N   15°16′50″E
темп.,
°C
ветер,
м/с
пор.,
м/с
влажн.,
%
обл.,
%
осадки,
мм/ч
давл.,
гПа
погр.,
м
23 сентября, чт
чт2323:00+24всв337768 0.1 1018552
02:00+23всв447952 0.2 1017504
05:00+23всв5580100 0.3 1017623
08:00+23в4472100 0.6 1019905
11:00+23вюв4468100 0.1 1020973
14:00+23юв4470100 0.3 1020885
17:00+23ююв3467100 0.1 1019937
20:00+22юв3471100 0.2 1020692
24 сентября, пт
пт2423:00+22ююв347250 0.1 1021660
02:00+22ю3372100 0.1 1020581
05:00+22ю347579 0.1 1019546
08:00+23ююз347610 0.3 1020468
11:00+24ю547056 0.1 1021716
14:00+25ююв777258 0.2 1020639
17:00+25ю887530 0.1 1019612
20:00+25юз577698 0.3 1020494
25 сентября, сб
сб2523:00+24з33770 0.0 1020144
02:00+23сз22800 0.0 1020130
05:00+23зюз11780 0.0 1019107
08:00+23юз11750 0.0 1020147
11:00+25ююв32681 0.0 1021429
14:00+26ююв66730 0.0 1020439
17:00+26ю89750 0.0 1019405
20:00+25ююз78790 0.0 1020308
26 сентября, вс
вс2623:00+25зюз33805 0.0 1021132
02:00+24юз227920 0.0 102089
05:00+24зюз22795 0.0 1020111
08:00+24зюз11745 0.0 1020115
11:00+26вюв216858 0.0 1020320
14:00+27ююв547346 0.0 1019366
17:00+27ююз676863 0.0 1018268
20:00+26юз347491 0.0 101865
27 сентября, пн
пн2723:00+25с457767 0.0 1018103
02:00+25сз22765 0.0 101832
05:00+25юз33745 0.0 101664
08:00+25ссз11684 0.0 101642
11:00+27всв326364 0.0 1016362
14:00+27вюв4361100 0.0 1015384
17:00+31зюз5644100 0.0 1012318
20:00+26ссз126976 0.0 101434